TimePDT,TemperatureF,Dew PointF,Humidity,Sea Level PressureIn,VisibilityMPH,Wind Direction,Wind SpeedMPH,Gust SpeedMPH,PrecipitationIn,Events,Conditions,WindDirDegrees,DateUTC
12:00 AM,19.4,-9999,N/A,30.44,10.0,South,5.8,-,N/A,,Clear,180,2012-10-26 07:00:00
12:20 AM,19.4,-9999,N/A,30.43,10.0,SSE,3.5,-,N/A,,Clear,160,2012-10-26 07:20:00
12:40 AM,19.4,-9999,N/A,30.43,10.0,South,5.8,-,N/A,,Clear,170,2012-10-26 07:40:00
1:00 AM,17.6,-9999,N/A,30.43,10.0,SSW,4.6,-,N/A,,Clear,200,2012-10-26 08:00:00
1:20 AM,17.6,-9999,N/A,30.43,10.0,South,3.5,-,N/A,,Clear,190,2012-10-26 08:20:00
1:40 AM,17.6,-9999,N/A,30.42,10.0,South,3.5,-,N/A,,Clear,180,2012-10-26 08:40:00
2:00 AM,17.6,-9999,N/A,30.42,10.0,SSE,3.5,-,N/A,,Clear,150,2012-10-26 09:00:00
2:20 AM,19.4,-9999,N/A,30.42,10.0,Calm,Calm,-,N/A,,Clear,0,2012-10-26 09:20:00
2:40 AM,17.6,-9999,N/A,30.43,10.0,Calm,Calm,-,N/A,,Clear,0,2012-10-26 09:40:00
3:00 AM,15.8,-9999,N/A,30.43,10.0,Calm,Calm,-,N/A,,Clear,0,2012-10-26 10:00:00
3:20 AM,15.8,-9999,N/A,30.43,10.0,SSW,3.5,-,N/A,,Clear,210,2012-10-26 10:20:00
3:40 AM,14.0,-9999,N/A,30.43,10.0,SSW,3.5,-,N/A,,Clear,200,2012-10-26 10:40:00
4:00 AM,14.0,-9999,N/A,30.43,10.0,South,5.8,-,N/A,,Clear,180,2012-10-26 11:00:00
4:20 AM,15.8,-9999,N/A,30.42,10.0,South,3.5,-,N/A,,Clear,180,2012-10-26 11:20:00
4:40 AM,14.0,-9999,N/A,30.42,10.0,Calm,Calm,-,N/A,,Clear,0,2012-10-26 11:40:00
5:00 AM,15.8,-9999,N/A,30.42,10.0,South,4.6,-,N/A,,Clear,170,2012-10-26 12:00:00
5:20 AM,15.8,-9999,N/A,30.43,10.0,South,4.6,-,N/A,,Clear,190,2012-10-26 12:20:00
5:40 AM,14.0,-9999,N/A,30.44,10.0,SSE,3.5,-,N/A,,Clear,150,2012-10-26 12:40:00
6:00 AM,14.0,-9999,N/A,30.43,10.0,SSE,4.6,-,N/A,,Clear,160,2012-10-26 13:00:00
6:20 AM,15.8,-9999,N/A,30.44,10.0,South,6.9,-,N/A,,Clear,190,2012-10-26 13:20:00
7:20 AM,14.0,-9999,N/A,30.45,10.0,SSW,5.8,-,N/A,,Clear,210,2012-10-26 14:20:00
8:00 AM,17.6,-9999,N/A,30.44,10.0,SSW,5.8,-,N/A,,Clear,200,2012-10-26 15:00:00
8:20 AM,21.2,-9999,N/A,30.45,10.0,South,3.5,-,N/A,,Clear,190,2012-10-26 15:20:00
8:40 AM,24.8,-9999,N/A,30.44,10.0,South,3.5,-,N/A,,Clear,190,2012-10-26 15:40:00
9:00 AM,26.6,-9999,N/A,30.43,10.0,SSW,3.5,-,N/A,,Clear,200,2012-10-26 16:00:00
9:20 AM,28.4,-9999,N/A,30.43,10.0,Calm,Calm,-,N/A,,Clear,0,2012-10-26 16:20:00
9:40 AM,32.0,-9999,N/A,30.43,10.0,Calm,Calm,-,N/A,,Clear,0,2012-10-26 16:40:00
10:00 AM,32.0,-9999,N/A,30.42,10.0,Calm,Calm,-,N/A,,Clear,0,2012-10-26 17:00:00
10:15 AM,32.0,-9999,N/A,30.42,10.0,East,4.6,-,N/A,,Clear,80,2012-10-26 17:15:00
10:40 AM,35.6,-9999,N/A,30.41,10.0,NE,4.6,-,N/A,,Clear,50,2012-10-26 17:40:00
11:20 AM,35.6,-9999,N/A,30.39,10.0,SE,3.5,-,N/A,,Clear,130,2012-10-26 18:20:00
11:40 AM,37.4,-9999,N/A,30.39,10.0,Calm,Calm,-,N/A,,Clear,0,2012-10-26 18:40:00
12:00 PM,39.2,-9999,N/A,30.38,10.0,Calm,Calm,-,N/A,,Clear,0,2012-10-26 19:00:00
12:20 PM,41.0,-9999,N/A,30.37,10.0,NNE,4.6,-,N/A,,Clear,30,2012-10-26 19:20:00
1:00 PM,44.6,-9999,N/A,30.34,10.0,Calm,Calm,-,N/A,,Clear,0,2012-10-26 20:00:00
1:20 PM,46.4,-9999,N/A,30.33,10.0,ESE,3.5,-,N/A,,Clear,110,2012-10-26 20:20:00
1:40 PM,46.4,-9999,N/A,30.31,10.0,Calm,Calm,-,N/A,,Clear,0,2012-10-26 20:40:00
2:00 PM,48.2,-9999,N/A,30.30,10.0,Calm,Calm,-,N/A,,Clear,0,2012-10-26 21:00:00
2:20 PM,50.0,-9999,N/A,30.29,10.0,SSE,3.5,-,N/A,,Clear,160,2012-10-26 21:20:00
2:40 PM,50.0,-9999,N/A,30.28,10.0,Calm,Calm,-,N/A,,Clear,0,2012-10-26 21:40:00
2:55 PM,50.0,-9999,N/A,30.28,10.0,WSW,3.5,-,N/A,,Clear,240,2012-10-26 21:55:00
3:20 PM,53.6,-9999,N/A,30.27,10.0,Calm,Calm,-,N/A,,Clear,0,2012-10-26 22:20:00
3:35 PM,53.6,-9999,N/A,30.27,10.0,North,5.8,-,N/A,,Clear,360,2012-10-26 22:35:00
4:00 PM,53.6,-9999,N/A,30.27,10.0,Calm,Calm,-,N/A,,Clear,0,2012-10-26 23:00:00
4:20 PM,51.8,-9999,N/A,30.26,10.0,Calm,Calm,-,N/A,,Clear,0,2012-10-26 23:20:00
4:40 PM,51.8,-9999,N/A,30.26,10.0,Calm,Calm,-,N/A,,Clear,0,2012-10-26 23:40:00
5:00 PM,51.8,-9999,N/A,30.25,10.0,Calm,Calm,-,N/A,,Clear,0,2012-10-27 00:00:00
5:20 PM,50.0,-9999,N/A,30.26,10.0,Calm,Calm,-,N/A,,Clear,0,2012-10-27 00:20:00
5:40 PM,48.2,-9999,N/A,30.25,10.0,Calm,Calm,-,N/A,,Clear,0,2012-10-27 00:40:00
6:00 PM,44.6,-9999,N/A,30.25,10.0,Calm,Calm,-,N/A,,Clear,0,2012-10-27 01:00:00
6:20 PM,41.0,-9999,N/A,30.26,10.0,Calm,Calm,-,N/A,,Clear,0,2012-10-27 01:20:00
6:40 PM,37.4,-9999,N/A,30.26,10.0,South,6.9,-,N/A,,Clear,180,2012-10-27 01:40:00
7:00 PM,35.6,-9999,N/A,30.26,10.0,South,9.2,-,N/A,,Clear,180,2012-10-27 02:00:00
7:20 PM,35.6,-9999,N/A,30.26,10.0,Calm,Calm,-,N/A,,Clear,0,2012-10-27 02:20:00
7:40 PM,33.8,-9999,N/A,30.27,10.0,Calm,Calm,-,N/A,,Clear,0,2012-10-27 02:40:00
8:00 PM,33.8,-9999,N/A,30.27,10.0,SSE,6.9,-,N/A,,Clear,160,2012-10-27 03:00:00
8:20 PM,33.8,-9999,N/A,30.27,10.0,SSW,6.9,-,N/A,,Clear,200,2012-10-27 03:20:00
8:40 PM,32.0,-9999,N/A,30.27,10.0,Calm,Calm,-,N/A,,Clear,0,2012-10-27 03:40:00
9:00 PM,32.0,-9999,N/A,30.27,10.0,South,5.8,-,N/A,,Clear,180,2012-10-27 04:00:00
9:20 PM,32.0,-9999,N/A,30.27,10.0,South,6.9,-,N/A,,Clear,190,2012-10-27 04:20:00
10:00 PM,32.0,-9999,N/A,30.27,10.0,SSE,5.8,-,N/A,,Clear,150,2012-10-27 05:00:00
10:20 PM,32.0,-9999,N/A,30.26,10.0,South,6.9,-,N/A,,Clear,180,2012-10-27 05:20:00
10:40 PM,32.0,-9999,N/A,30.27,10.0,Calm,Calm,-,N/A,,Clear,0,2012-10-27 05:40:00
11:00 PM,30.2,-9999,N/A,30.27,10.0,SE,3.5,-,N/A,,Clear,140,2012-10-27 06:00:00
11:20 PM,28.4,-9999,N/A,30.26,10.0,Calm,Calm,-,N/A,,Clear,0,2012-10-27 06:20:00
11:40 PM,30.2,-9999,N/A,30.26,10.0,Calm,Calm,-,N/A,,Clear,0,2012-10-27 06:40:00